112  
ASUS46 KSEW 071910  
RWRWA  
 
WASHINGTON REGIONAL WEATHER ROUNDUP  
NATIONAL WEATHER SERVICE SEATTLE WA  
1200 PM PDT TUE JUL 07 2020  
 
NOTE:"FAIR" INDICATES FEW OR NO CLOUDS BELOW 12,000 FEET WITH NO  
SIGNIFICANT WEATHER AND/OR S TO VISIBILITY
.  
 
WAZ507-509-555>559-072000-  
SEATTLE, TACOMA, EVERETT, AND VICINITY  
 
CITY SKY/WX TMP DP RH WIND PRES REMARKS
 
EVERETT CLOUDY 56 53 90 N5 30.10R  
BOEING FIELD PTSUNNY 64 51 62 S8 30.08S  
RENTON CLOUDY 64 50 60 S8G18 30.08S  
SEATAC AIRPORT PTSUNNY 64 52 64 SW16 30.09R  
JBLM-MCCHORD CLOUDY 62 52 70 SW13 30.10R  
PUYALLUP CLOUDY 63 55 77 SW8 30.11R  
BREMERTON CLOUDY 63 53 70 SW12G18 30.08S  
JBLM-FT LEWIS CLOUDY 61 60 97 S14 30.09S  
TACOMA NARROWS PTSUNNY 60 52 74 S13 30.10R  

 
 
WAZ001-503-506-510-514-515-072000-  
NORTH INTERIOR  
 
CITY SKY/WX TMP DP RH WIND PRES REMARKS
 
BELLINGHAM CLOUDY 61 49 64 S10 30.06R  
FRIDAY HARBOR CLOUDY 60 51 72 VRB7 30.08R  
EASTSOUND CLOUDY 63 50 63 VRB7 30.05R  
PORT ANGELES CLOUDY 60 51 72 NW6 30.08R  
EDIZ HOOK CLOUDY N/A N/A N/A NW8 30.08S  
PORT TOWNSEND CLOUDY 59 52 77 CALM 30.08R  
NAS WHIDBEY PTSUNNY 63 47 55 SW8 30.12R  
ARLINGTON CLOUDY 55 53 93 CALM 30.11R  
BURLINGTON CLOUDY 64 52 63 SE6 30.09R  

 
 
WAZ020-022-039-040-504-511-512-072000-  
SOUTHWEST INTERIOR  
 
CITY SKY/WX TMP DP RH WIND PRES REMARKS
 
SHELTON CLOUDY 62 53 72 SW13 30.07R  
OLYMPIA CLOUDY 59 54 83 S12 30.10S  
CHEHALIS CLOUDY 61 57 88 S6 30.11S  
KELSO CLOUDY 60 55 83 S8 30.13S  
VANCOUVER CLOUDY 64 52 64 VRB5 30.12S  
SCAPPOOSE, OR CLOUDY 62 54 74 SE5 30.11S  
PORTLAND, OR CLOUDY 64 52 64 SW6 30.12F  

 
 
WAZ021-516-517-072000-  
WASHINGTON COAST  
 
CITY SKY/WX TMP DP RH WIND PRES REMARKS
 
FORKS CLOUDY 61 54 77 VRB6 30.09R  
HOQUIAM CLOUDY 57 56 96 CALM 30.10S FOG  
ASTORIA, OR CLOUDY 60 58 92 W9 30.10S  

 
 
WAZ019-023-024-040-567>569-072000-  
CASCADE MOUNTAINS AND COLUMBIA GORGE  
 
CITY SKY/WX TMP DP RH WIND PRES REMARKS
 
STAMPEDE PASS CLOUDY 48 45 89 W9G18 30.07R FOG  
TROUTDALE, OR CLOUDY 63 50 62 SW5 30.13S  
HOOD RIVER, OR MOCLDY 63 48 59 NW15G25 30.07R  
THE DALLES, OR MOSUNNY 71 50 47 NW22G28 30.03F  

 
 
WAZ026-027-041>044-520-521-072000-  
EAST SLOPES  
 
CITY SKY/WX TMP DP RH WIND PRES REMARKS
 
OMAK CLOUDY 71 43 36 NW9 29.88S  
WENATCHEE SUNNY 73 39 29 NW23 29.91S  
ELLENSBURG SUNNY 67 43 41 NW29G38 29.99R  
YAKIMA MOSUNNY 74 43 32 W18 29.95S  
SUNNYSIDE ARPT CLEAR 72 43 35 CALM 29.96  
YAKIMA TC FAIR 72 38 29 W9 29.94F  

 
 
WAZ028-034-035-072000-  
COLUMBIA BASIN  
 
CITY SKY/WX TMP DP RH WIND PRES REMARKS
 
EPHRATA CLOUDY 75 42 30 SW15G21 29.89R  
MOSES LAKE SUNNY 76 43 30 S15G21 29.90S  
PASCO SUNNY 78 43 28 SW13G24 29.95F  
RICHLAND ARPT PTCLDY 77 43 29 S6 29.94  
HERMISTON, OR SUNNY 74 44 34 W20G28 29.97F  

 
 
WAZ036>038-072000-  
NORTHEAST WASHINGTON  
 
CITY SKY/WX TMP DP RH WIND PRES REMARKS
 
SPOKANE GEIGER PTSUNNY 65 44 46 S21G29 29.95S  
SPOKANE FELTS PTSUNNY 66 46 48 S9G22 29.96S  
FAIRCHILD AFB CLOUDY 67 43 41 SW16G23 29.95R  
COEURDALENE,ID CLOUDY 60 48 64 SW6 29.98R  
DEER PARK PTSUNNY 67 46 47 S16G23 29.95S  

 
 
WAZ029>033-072000-  
SOUTHEAST WASHINGTON  
 
CITY SKY/WX TMP DP RH WIND PRES REMARKS
 
PULLMAN MOSUNNY 61 47 59 W15G23 30.01S  
LEWISTON, ID MOSUNNY 71 49 45 NW6 29.95S  
WALLA WALLA MOSUNNY 71 41 33 S17G29 29.99F  
PENDLETON, OR SUNNY 72 41 32 W15G26 30.00F  

 
 
 
CLICK HERE TO GO TO PREVIOUS BULLETINS.

The Nexlab WA Page Main Text Page